Weather Roundup
Issued by NWS

Home | Current Version | Previous Version | Text Only | Print | Product List | Glossary On
Versions: 1 2 3 4 5 6 7 8 9 10 11 12 13 14 15 16 17 18 19 20 21 22 23 24 25 26 27 28 29 30 31 32 33 34 35 36 37 38 39 40 41 42 43 44 45 46 47 48 49 50
000
NZUS93 KARX 300659
HRRWXR

CURRENT HOURLY OBSERVATIONS ACROSS
MUCH OF THE UPPER MISSISSIPPI VALLEY
NATIONAL WEATHER SERVICE LA CROSSE WI
200 AM CDT WED JUL 30 2014


...SOUTHEAST MINNESOTA...


CITY           SKY/WX    TMP DP  RH WIND       PRES   REMARKS
ROCHESTER      CLEAR     60  57  89 W8        30.08F
ROCHESTER/MAYO FAIR      61  58  90 W5        30.07S
WINONA         PTCLDY    59  55  88 CALM      30.04F
AUSTIN         CLEAR     59  55  88 CALM      30.08F
ALBERT LEA     CLEAR     59  54  82 CALM      30.09S
DODGE CENTER   CLEAR     59  57  94 W3        30.08S
PRESTON        CLOUDY    61  61 100 CALM      30.07F
OWATONNA       CLEAR     55  52  88 CALM      30.08S
FARIBAULT      CLEAR     59  54  82 CALM      30.08S
$$

...ELSEWHERE IN MINNESOTA...


CITY           SKY/WX    TMP DP  RH WIND       PRES   REMARKS
MINNEAPOLIS    PTCLDY    63  56  78 NW6       30.06F
INTNL FALLS    CLEAR     51  50  96 CALM      30.05F
DULUTH         CLEAR     56  53  90 N3        30.06S
RED WING       CLEAR     59  55  88 CALM      30.05S
REDWOOD FALLS  CLEAR     59  55  87 NW8       30.10S
MANKATO        CLEAR     61  52  72 NW6       30.08S
WORTHINGTON    CLEAR     54  50  87 W3        30.15S
FAIRMONT       CLEAR     59  52  77 NW6       30.10F
$$

...SOUTHWEST WISCONSIN...


CITY           SKY/WX    TMP DP  RH WIND       PRES   REMARKS
LA CROSSE      CLEAR     61  58  90 CALM      30.03F FOG
PRAIRIE DU CHI CLOUDY    65  57  77 NW3       30.04S
BOSCOBEL       PTCLDY    61  58  90 CALM      30.03F
LONE ROCK      NOT AVBL
PLATTEVILLE    CLOUDY    61  59  91 W3        30.05F
FORT MC COY    FOG       56  55  97 CALM      30.05S VSB 3/4
CAMP DOUGLAS   PTCLDY    54  54 100 W5        30.03S FOG
VIROQUA        FAIR      58  58 100 CALM      30.05S
WIS DELLS      MOCLDY    57  55  91 CALM      30.03S
$$

...ELSEWHERE IN WISCONSIN...


CITY           SKY/WX    TMP DP  RH WIND       PRES   REMARKS
MILWAUKEE      PTCLDY    60  55  83 W7        30.00S
MADISON        PTCLDY    61  56  83 CALM      30.02F
GREEN BAY      CLOUDY    59  58  96 NW5       29.99S
EAU CLAIRE     NOT AVBL
BLACK RVR FLS  PTSUNNY   55  55 100 CALM      30.04S FOG
MEDFORD        MOCLDY    53  53  99 NW5       30.04S
WAUSAU         CLEAR     56  54  93 NW7       30.01S
WIS RAPIDS     MOCLDY    57  56  96 NW5       30.04S
MARSHFIELD     PTCLDY    56  54  93 NW5       30.03R
RICE LAKE      CLEAR     57  55  94 CALM      30.06S
$$

...NORTHEAST IOWA...


CITY           SKY/WX    TMP DP  RH WIND       PRES   REMARKS
WATERLOO       CLEAR     57  54  89 NW3       30.06F
DUBUQUE        CLEAR     57  55  93 CALM      30.05F
DECORAH        MOCLDY    61  59  94 CALM      30.06F
MASON CITY     CLEAR     57  54  89 W7        30.10F
CHARLES CITY   CLEAR     57  55  94 NW3       30.08F
OELWEIN        CLEAR     57  55  94 N3        30.08S
$$

...ELSEWHERE IN IOWA...


CITY           SKY/WX    TMP DP  RH WIND       PRES   REMARKS
DES MOINES     CLEAR     62  56  80 CALM      30.10S
IOWA CITY      CLEAR     61  58  90 CALM      30.08S
FORT DODGE     PTCLDY    55  54  94 CALM      30.12S
MARSHALLTOWN   CLEAR     56  55  97 W3        30.08F
CEDAR RAPIDS   CLEAR     58  51  78 NW6       30.06S
$$

...NORTHERN ILLINOIS...


CITY           SKY/WX    TMP DP  RH WIND       PRES   REMARKS
CHICAGO-OHARE  PTCLDY    61  54  77 W8        30.00F
DUPAGE         PTCLDY    59  55  87 CALM      30.01F
CHICAGO-MIDWAY PTCLDY    64  56  75 SW3       30.01S
MOLINE         CLEAR     61  57  87 CALM      30.05F
ROCKFORD       PTCLDY    60  56  86 SW6       30.05F
STERLING       CLOUDY    63  57  82 SW5       30.03F
PEORIA         CLEAR     65  57  75 CALM      30.05F
$$

NOTE: "FAIR" INDICATES FEW OR NO CLOUDS BELOW 12,000 FEET WITH NO
SIGNIFICANT WEATHER AND/OR OBSTRUCTIONS TO VISIBILITY. WIND
SPEEDS ARE IN MILES-PER-HOUR.



USA.gov is the U.S. government's official web portal to all federal, state and local government web resources and services.